Location: Gorze? G�rny
(49.8500°N, 19.5000°E)
Time: 04:27:12
(UTC+00:00)

Thor Agena Rocket - Pass Details

Date: 13 May 2021
Orbit: 760 x 807 km, 99.0° (Epoch: 20 June)

Event Time Altitude Azimuth Distance (km) Brightness Sun altitude
Rises 23:00:57 0° 13° (NNE) 3,307 8.3 -21.3°
Reaches altitude 10° 23:03:17 10° 11° (N) 2,379 7.2 -21.3°
Maximum altitude 23:08:30 69° 290° (WNW) 861 3.7 -21.2°
Enters shadow 23:10:21 40° 220° (SW) 1,166 4.0 -21.2°
